Date,TemperatureHighF,TemperatureAvgF,TemperatureLowF,DewpointHighF,DewpointAvgF,DewpointLowF,HumidityHigh,HumidityAvg,HumidityLow,PressureMaxIn,PressureMinIn,WindSpeedMaxMPH,WindSpeedAvgMPH,GustSpeedMaxMPH,PrecipitationSumIn
2013-1-1,45.5,43.1,40.1,46.0,43.1,40.0,100,100,100,30.20,30.14,13,4,0,0.00
2013-1-2,52.8,43.8,38.6,53.0,43.9,39.0,100,100,100,30.33,30.17,7,1,0,0.01
2013-1-3,49.4,45.9,41.9,49.0,46.0,42.0,100,100,100,30.42,30.33,4,1,0,0.00
2013-1-4,49.4,44.1,37.8,49.0,44.1,38.0,100,100,100,30.34,30.02,11,2,0,0.01
2013-1-5,48.5,43.6,40.2,49.0,43.7,40.0,100,100,100,30.01,29.78,7,2,0,0.04
2013-1-6,42.5,39.4,37.2,43.0,39.4,37.0,100,100,100,29.87,29.76,19,6,0,0.03
2013-1-7,37.8,33.9,31.5,38.0,34.0,32.0,100,100,100,30.02,29.80,16,4,0,0.10
2013-1-8,32.1,28.9,27.5,32.0,28.0,25.0,100,97,81,30.15,30.03,18,6,0,0.00
2013-1-9,32.2,30.0,27.6,29.0,25.7,22.0,97,84,72,30.23,30.12,13,4,0,0.01
2013-1-10,40.3,34.4,28.1,40.0,26.9,22.0,100,75,66,30.22,30.03,16,4,0,0.09
2013-1-11,47.1,44.5,40.2,47.0,43.2,39.0,100,95,77,30.02,29.85,19,7,0,0.23
2013-1-12,51.3,46.0,37.5,51.0,46.0,38.0,100,100,100,30.02,29.83,13,4,0,0.57
2013-1-13,39.3,38.0,36.9,39.0,38.1,37.0,100,100,100,30.31,30.03,7,3,0,0.07
2013-1-14,49.4,42.1,36.2,49.0,42.1,36.0,100,100,100,30.36,30.30,5,1,0,0.01
2013-1-15,56.3,49.3,41.3,56.0,49.3,41.0,100,100,100,30.31,30.12,11,3,0,0.00
2013-1-16,60.1,52.2,46.4,60.0,52.2,46.0,100,100,100,30.12,29.73,21,6,0,0.16
2013-1-17,56.6,51.4,46.0,57.0,51.4,46.0,100,100,100,29.81,29.60,17,6,0,0.10
2013-1-18,57.6,54.6,49.8,58.0,54.7,50.0,100,100,100,29.79,29.51,14,4,0,0.06
2013-1-19,54.5,48.5,45.2,50.0,44.8,41.0,100,88,64,29.78,29.51,16,7,0,0.23
2013-1-20,57.8,52.9,46.8,58.0,49.4,42.0,100,88,69,29.93,29.79,14,6,0,0.01
2013-1-21,63.4,58.0,53.9,63.0,56.2,44.0,100,94,59,29.92,29.75,13,4,0,0.00
2013-1-22,60.9,57.0,52.8,61.0,57.0,53.0,100,100,100,29.76,29.66,21,6,0,0.09
2013-1-23,56.5,54.0,51.4,55.0,49.6,41.0,100,86,62,29.95,29.75,18,5,0,0.07
2013-1-24,59.0,53.3,47.7,47.0,44.4,42.0,89,73,56,29.95,29.62,13,3,0,0.01
2013-1-25,57.3,51.0,41.1,55.0,46.6,41.0,100,86,59,29.78,29.56,19,6,0,0.25
2013-1-26,44.3,42.6,39.9,44.0,42.6,40.0,100,100,100,29.77,29.67,18,8,0,0.10
2013-1-27,43.9,36.6,32.8,44.0,36.6,33.0,100,100,100,29.99,29.74,20,8,0,0.18
2013-1-28,38.0,36.4,34.1,38.0,36.5,34.0,100,100,100,30.06,29.94,8,-7,0,0.04
2013-1-29,37.3,36.5,35.2,37.0,36.5,35.0,100,100,100,30.14,30.06,11,2,0,0.04
2013-1-30,41.8,36.7,32.5,42.0,36.8,33.0,100,100,100,30.11,30.00,7,1,0,0.01
2013-1-31,44.2,39.2,34.0,44.0,39.1,34.0,100,100,90,30.01,29.83,12,3,0,0.39
2013-2-1,48.5,44.2,38.0,49.0,44.3,38.0,100,100,100,30.00,29.88,14,4,0,0.00
2013-2-2,55.3,49.1,43.5,55.0,46.3,36.0,100,91,58,29.90,29.75,16,5,0,0.00
2013-2-3,66.8,61.7,55.0,67.0,61.7,55.0,100,100,100,29.89,29.77,22,10,0,0.00
2013-2-4,62.6,56.3,45.5,63.0,56.4,46.0,100,100,100,30.03,29.89,14,4,0,0.00
2013-2-5,51.4,44.7,41.8,51.0,44.8,42.0,100,100,100,30.11,29.86,14,5,0,0.17
2013-2-6,55.4,48.1,41.8,55.0,48.1,42.0,100,100,100,29.86,29.69,10,2,0,0.00
2013-2-7,62.9,56.3,51.9,63.0,56.4,52.0,100,100,100,29.75,29.65,18,4,0,0.04
2013-2-8,57.5,51.0,47.7,58.0,48.8,44.0,100,92,79,29.74,29.61,24,5,0,0.25
2013-2-9,55.0,49.5,46.0,53.0,47.1,44.0,100,92,68,29.94,29.74,14,3,0,0.31
2013-2-10,52.3,47.8,44.6,51.0,47.4,45.0,100,98,90,29.94,29.82,11,2,0,0.20
2013-2-11,46.8,42.8,39.6,47.0,42.9,40.0,100,100,98,30.05,29.80,13,4,0,0.02
2013-2-12,52.2,45.5,37.5,52.0,45.2,38.0,100,98,89,30.15,30.05,12,2,0,0.00
2013-2-13,57.5,48.8,42.2,57.0,42.4,36.0,100,80,48,30.11,30.03,7,1,0,0.00
2013-2-14,49.8,44.7,42.8,45.0,42.7,37.0,100,93,62,30.03,29.80,15,7,0,0.00
2013-2-15,44.5,41.7,38.0,45.0,41.8,38.0,100,100,100,30.04,29.74,24,8,0,0.42
2013-2-16,38.8,37.8,36.5,39.0,37.9,37.0,100,100,100,30.16,30.04,12,3,0,0.00
2013-2-17,39.6,38.3,37.2,40.0,38.3,37.0,100,100,100,30.15,30.10,14,5,0,0.00
2013-2-18,42.8,39.3,36.8,43.0,39.5,37.0,100,100,100,30.14,30.09,11,5,0,0.00
2013-2-19,49.1,40.3,35.3,49.0,40.4,35.0,100,100,100,30.12,29.81,14,5,0,0.06
2013-2-20,42.3,39.6,37.5,42.0,39.7,38.0,100,100,100,30.12,29.78,12,3,0,0.05
2013-2-21,49.4,42.3,37.0,49.0,42.4,37.0,100,100,100,30.12,29.95,7,1,0,0.00
2013-2-22,49.5,45.8,41.9,50.0,45.9,42.0,100,100,100,29.97,29.69,9,2,0,0.10
2013-2-23,52.3,47.4,44.8,52.0,47.4,45.0,100,100,100,30.12,29.70,6,1,0,0.00
2013-2-24,56.3,45.9,41.8,56.0,46.0,42.0,100,100,100,30.22,30.12,11,2,0,0.01
2013-2-25,51.6,43.6,40.3,52.0,43.6,40.0,100,100,100,30.23,30.14,19,5,0,0.01
2013-2-26,44.8,43.4,42.2,45.0,43.6,42.0,100,100,100,30.15,30.04,14,6,0,0.09
2013-2-27,47.7,43.5,40.9,48.0,43.6,41.0,100,100,100,30.05,30.01,16,4,0,0.00
2013-2-28,42.6,40.6,37.8,43.0,40.6,38.0,100,100,100,30.22,30.05,16,6,0,0.10
2013-3-1,48.8,41.4,34.6,42.0,37.0,34.0,100,85,60,30.19,30.00,7,1,0,0.01
2013-3-2,54.4,45.7,40.6,54.0,44.5,26.0,100,96,37,30.11,29.96,12,4,0,0.00
2013-3-3,45.5,42.1,38.3,46.0,42.1,38.0,100,100,100,30.12,29.92,24,10,0,0.00
2013-3-4,38.5,37.9,37.0,39.0,37.9,37.0,100,100,100,29.97,29.95,7,2,0,0.00
2013-3-5,41.3,38.3,34.3,41.0,38.4,34.0,100,100,100,30.49,30.40,17,7,0,0.00
2013-3-6,55.1,42.9,32.2,55.0,43.0,32.0,100,100,100,30.49,30.14,7,1,0,0.00
2013-3-7,59.3,53.7,47.7,59.0,53.8,48.0,100,100,100,30.14,29.94,13,3,0,0.00
2013-3-8,61.6,56.2,51.0,62.0,56.2,51.0,100,100,100,29.94,29.80,12,4,0,0.05
2013-3-9,62.0,55.9,51.3,62.0,56.0,51.0,100,100,100,29.82,29.73,14,5,0,0.04
2013-3-10,65.2,58.4,52.5,65.0,58.5,53.0,100,100,100,29.73,29.65,17,5,0,0.00
2013-3-11,66.3,60.3,55.3,66.0,60.3,55.0,100,100,100,29.69,29.53,13,4,0,0.01
2013-3-12,67.1,58.6,52.9,67.0,58.7,53.0,100,100,100,29.60,29.51,13,4,0,0.06
2013-3-13,66.0,59.0,52.3,66.0,59.1,52.0,100,100,100,29.74,29.60,16,5,0,0.00
2013-3-14,72.5,64.5,55.6,73.0,64.6,56.0,100,100,100,29.73,29.32,17,5,0,0.00
2013-3-15,66.9,57.3,49.4,67.0,57.3,49.0,100,100,100,29.58,29.30,26,6,0,0.48
2013-3-16,49.1,36.6,32.4,49.0,36.6,32.0,100,100,100,30.02,29.56,21,9,0,0.54
2013-3-17,39.1,36.6,34.7,39.0,36.6,35.0,100,100,95,30.22,30.02,14,3,0,0.03
2013-3-18,51.6,41.7,33.2,52.0,41.4,33.0,100,99,63,30.24,29.92,8,1,0,0.01
2013-3-19,62.0,54.0,44.8,61.0,48.1,41.0,100,83,47,29.92,29.70,17,6,0,0.00
2013-3-20,58.6,53.9,48.5,59.0,52.8,45.0,100,96,72,29.96,29.80,12,3,0,0.00
2013-3-21,70.8,62.0,52.9,71.0,61.1,46.0,100,98,45,29.92,29.50,14,3,0,0.00
2013-3-22,63.9,49.8,39.8,64.0,49.8,40.0,100,100,89,29.58,29.42,17,4,0,0.39
2013-3-23,49.6,43.1,39.2,50.0,43.2,39.0,100,100,100,29.97,29.59,14,5,0,0.01
2013-3-24,58.7,48.3,39.3,59.0,48.4,39.0,100,100,100,30.08,29.97,10,1,0,0.00
2013-3-25,49.2,45.2,43.1,49.0,45.4,43.0,100,100,100,30.03,29.70,19,8,0,0.00
2013-3-26,65.3,51.2,44.2,64.0,48.2,44.0,100,92,52,29.72,29.53,14,4,0,0.11
2013-3-27,46.4,43.7,42.6,46.0,43.8,43.0,100,100,100,29.88,29.60,13,4,0,0.42
2013-3-28,43.9,42.9,41.8,44.0,43.1,42.0,100,100,100,30.18,29.88,14,7,0,0.02
2013-3-29,53.1,45.3,40.2,53.0,45.4,40.0,100,100,100,30.18,30.02,14,5,0,0.02
2013-3-30,74.4,59.7,44.3,74.0,57.9,44.0,100,95,48,30.02,29.86,8,2,0,0.00
2013-3-31,80.3,70.6,62.3,78.0,51.3,44.0,100,55,29,29.86,29.72,13,4,0,0.00
2013-4-1,71.1,64.1,59.8,71.0,64.1,60.0,100,100,100,29.80,29.71,14,3,0,0.01
2013-4-2,70.8,62.2,53.6,70.0,51.2,36.0,100,75,31,29.89,29.77,10,3,0,0.00
2013-4-3,72.5,62.7,55.6,58.0,50.0,42.0,100,66,42,29.77,29.52,14,3,0,0.27
2013-4-4,65.8,57.6,53.5,57.0,53.5,51.0,100,87,65,29.90,29.60,13,4,0,0.02
2013-4-5,69.6,61.2,52.6,53.0,49.9,43.0,97,70,39,29.98,29.77,14,3,0,0.00
2013-4-6,76.1,68.3,61.8,76.0,57.0,44.0,100,71,36,29.83,29.74,12,3,0,0.00
2013-4-7,64.8,56.7,48.3,65.0,50.7,48.0,100,82,54,29.82,29.49,25,7,0,0.03
2013-4-8,48.6,45.4,42.5,49.0,45.5,43.0,100,100,100,29.92,29.55,17,8,0,0.69
2013-4-9,47.3,44.3,41.9,46.0,43.5,42.0,100,97,90,30.00,29.91,10,4,0,0.02
2013-4-10,61.8,52.4,44.9,62.0,51.4,45.0,100,97,69,30.01,29.91,8,2,0,0.01
2013-4-11,58.9,53.8,50.7,59.0,51.5,49.0,100,92,78,30.05,29.90,9,2,0,0.01
2013-4-12,70.6,60.1,49.5,68.0,47.2,30.0,100,68,27,30.09,30.03,11,2,0,0.00
2013-4-13,74.0,64.1,55.0,74.0,56.9,43.0,100,82,35,30.09,30.01,10,2,0,0.00
2013-4-14,63.7,54.6,48.9,60.0,52.4,45.0,100,93,51,30.16,30.04,13,5,0,0.03
2013-4-15,50.2,48.4,47.3,50.0,48.4,47.0,100,100,100,30.13,29.98,22,10,0,0.10
2013-4-16,48.3,46.9,44.9,48.0,47.0,45.0,100,100,100,30.00,29.91,16,7,0,0.07
2013-4-17,49.9,47.6,45.8,48.0,45.3,42.0,100,92,76,30.13,30.00,21,8,0,0.00
2013-4-18,52.8,47.8,44.6,47.0,44.6,37.0,100,90,57,30.11,30.04,20,7,0,0.00
2013-4-19,52.2,47.6,43.1,52.0,47.6,43.0,100,100,100,30.03,29.96,20,7,0,0.00
2013-4-20,52.9,49.1,46.2,53.0,49.1,46.0,100,100,100,30.01,29.93,12,5,0,0.00
2013-4-21,59.3,50.6,46.0,59.0,50.2,46.0,100,98,69,30.00,29.92,11,3,0,0.02
2013-4-22,59.6,51.1,45.7,60.0,51.1,46.0,100,100,96,30.15,29.97,16,4,0,0.00
2013-4-23,58.3,50.7,42.6,58.0,49.8,39.0,100,97,58,30.25,30.15,12,3,0,0.01
2013-4-24,74.6,61.1,46.4,72.0,49.7,38.0,100,72,30,30.34,30.25,5,1,0,0.00
2013-4-25,78.5,70.4,56.6,71.0,51.7,45.0,100,58,32,30.29,30.16,6,1,0,0.00
2013-4-26,81.6,69.4,57.8,79.0,51.4,42.0,100,59,31,30.17,30.02,13,2,0,0.00
2013-4-27,84.1,71.1,56.3,84.0,64.3,44.0,100,84,26,30.02,29.91,6,1,0,0.00
2013-4-28,82.8,72.7,61.3,83.0,64.6,44.0,100,80,39,30.06,29.94,21,2,0,0.00
2013-4-29,84.1,70.0,59.9,78.0,54.1,48.0,100,61,31,30.16,30.06,10,2,0,0.00
2013-4-30,68.8,60.9,55.3,63.0,58.0,55.0,100,91,74,30.19,30.12,17,5,0,0.00
2013-5-1,69.1,59.8,54.4,69.0,58.8,54.0,100,97,75,30.12,30.03,18,7,0,0.00
2013-5-2,66.8,58.6,54.4,65.0,57.6,54.0,100,96,81,30.05,29.98,16,8,0,0.00
2013-5-3,61.0,56.9,54.1,59.0,56.4,54.0,100,98,91,29.98,29.89,17,7,0,0.01
2013-5-4,74.9,60.7,53.2,75.0,60.8,53.0,100,100,100,29.96,29.88,10,2,0,0.00
2013-5-5,69.8,62.0,54.5,70.0,62.1,55.0,100,100,100,30.09,29.95,15,4,0,0.00
2013-5-6,68.4,61.4,56.9,68.0,61.4,57.0,100,100,100,30.16,30.09,17,7,0,0.00
2013-5-7,62.1,59.0,57.3,62.0,59.1,57.0,100,100,100,30.10,29.98,26,9,0,0.00
2013-5-8,62.7,58.7,56.5,63.0,58.9,57.0,100,100,100,29.98,29.89,25,12,0,0.01
2013-5-9,59.0,57.3,56.0,59.0,57.4,56.0,100,100,100,29.95,29.90,14,6,0,0.00
2013-5-10,64.7,58.5,54.5,65.0,58.6,55.0,100,100,100,29.94,29.87,11,5,0,0.00
2013-5-11,71.1,60.3,53.6,71.0,60.3,54.0,100,100,100,29.87,29.73,10,2,0,0.00
2013-5-12,75.4,65.0,54.1,75.0,65.0,54.0,100,100,100,29.74,29.64,11,1,0,0.00
2013-5-13,74.2,65.5,61.3,74.0,65.6,61.0,100,100,100,29.69,29.61,10,3,0,0.08
2013-5-14,62.3,60.9,59.9,62.0,60.9,60.0,100,100,100,29.80,29.64,14,3,0,0.01
2013-5-15,69.3,61.9,58.3,69.0,61.9,58.0,100,100,100,29.88,29.79,6,2,0,1.16
2013-5-16,79.0,72.0,60.4,79.0,68.8,49.0,100,92,46,29.92,29.87,10,3,0,0.00
2013-5-17,82.6,73.4,63.4,83.0,71.4,51.0,100,95,53,29.91,29.82,8,2,0,0.02
2013-5-18,82.2,75.3,66.3,82.0,73.4,61.0,100,94,62,29.97,29.87,7,2,0,0.00
2013-5-19,81.2,72.8,65.3,80.0,68.9,57.0,100,90,45,29.97,29.92,13,2,0,0.00
2013-5-20,79.8,71.2,63.4,80.0,69.2,56.0,100,94,62,29.97,29.92,14,3,0,0.00
2013-5-21,77.2,69.6,64.2,68.0,60.5,54.0,100,74,47,29.97,29.91,17,4,0,0.00
2013-5-22,89.7,77.0,61.6,90.0,75.8,59.0,100,97,45,29.92,29.76,6,1,0,0.00
2013-5-23,91.8,81.1,70.8,92.0,77.9,50.0,100,92,36,29.76,29.54,24,6,0,0.02
2013-5-24,77.7,73.9,68.8,75.0,58.5,47.0,100,63,40,29.84,29.63,20,6,0,0.00
2013-5-25,82.4,73.6,63.9,82.0,69.8,52.0,100,91,39,29.89,29.82,14,4,0,0.00
2013-5-26,84.3,74.5,64.5,84.0,74.3,55.0,100,99,45,29.89,29.78,15,4,0,0.00
2013-5-27,70.8,65.2,59.9,71.0,65.2,60.0,100,100,100,29.96,29.80,14,5,0,0.00
2013-5-28,79.0,69.9,59.9,79.0,69.9,60.0,100,100,100,29.98,29.91,8,2,0,0.00
2013-5-29,77.4,71.0,63.7,77.0,71.1,64.0,100,100,100,29.92,29.62,17,5,0,0.00
2013-5-30,84.5,73.4,62.1,85.0,73.4,62.0,100,100,100,29.68,29.62,16,2,0,0.00
2013-5-31,85.7,77.0,68.4,86.0,73.4,46.0,100,91,36,29.72,29.58,22,6,0,0.00
2013-6-1,82.0,72.3,61.3,74.0,57.3,46.0,100,66,30,29.82,29.72,15,3,0,0.00
2013-6-2,68.8,64.8,61.8,68.0,63.3,56.0,100,96,65,29.81,29.62,9,2,0,0.14
2013-6-3,75.1,67.2,57.3,75.0,67.2,57.0,100,100,100,29.86,29.71,16,4,0,0.00
2013-6-4,75.8,67.1,60.4,74.0,62.8,54.0,100,88,50,29.90,29.84,15,3,0,0.00
2013-6-5,77.9,67.6,60.7,74.0,62.2,55.0,100,85,47,29.96,29.88,11,2,0,0.08
2013-6-6,78.5,68.1,62.6,74.0,61.4,54.0,100,80,51,30.00,29.96,13,2,0,0.00
2013-6-7,81.2,70.4,61.8,81.0,65.5,57.0,100,86,48,29.99,29.90,10,2,0,0.00
2013-6-8,72.0,67.6,61.8,72.0,67.6,62.0,100,100,100,29.89,29.82,15,7,0,0.00
2013-6-9,72.0,67.4,63.1,72.0,67.4,63.0,100,100,100,29.96,29.86,17,6,0,0.00
2013-6-10,80.3,70.7,61.6,80.0,70.8,62.0,100,100,100,29.97,29.86,14,3,0,0.00
2013-6-11,82.8,73.1,63.4,83.0,73.2,63.0,100,100,100,29.89,29.71,13,4,0,0.00
2013-6-12,71.5,67.5,64.5,72.0,67.5,65.0,100,100,100,29.80,29.67,16,7,0,0.04
2013-6-13,74.0,69.2,66.0,70.0,67.6,66.0,100,95,78,29.81,29.72,17,5,0,0.35
2013-6-14,74.0,68.0,65.0,70.0,66.6,63.0,100,96,75,29.88,29.79,12,2,0,0.11
2013-6-15,77.0,69.7,63.9,72.0,66.1,64.0,100,89,67,29.89,29.86,7,1,0,0.47
2013-6-16,81.6,74.3,66.3,82.0,72.6,65.0,100,95,71,29.95,29.88,14,2,0,0.10
2013-6-17,79.0,73.8,68.4,79.0,73.7,68.0,100,100,100,29.99,29.91,14,3,0,0.00
2013-6-18,77.9,73.6,68.6,78.0,73.6,69.0,100,100,100,30.02,29.97,16,6,0,0.00
2013-6-19,76.3,72.2,67.3,76.0,72.3,67.0,100,100,100,30.01,29.98,18,7,0,0.00
2013-6-20,75.8,71.9,67.6,76.0,71.9,68.0,100,100,100,30.06,29.98,21,7,0,0.00
2013-6-21,75.1,70.9,66.3,75.0,70.9,66.0,100,100,100,30.05,29.98,21,9,0,0.00
2013-6-22,76.5,71.2,65.2,69.0,63.8,58.0,100,79,57,30.00,29.91,17,8,0,0.00
2013-6-23,77.4,71.8,66.0,77.0,70.6,63.0,100,96,73,29.92,29.80,15,6,0,0.00
2013-6-24,79.8,72.5,66.8,79.0,69.9,66.0,100,92,64,29.82,29.77,16,6,0,0.00
2013-6-25,83.0,75.3,68.9,83.0,74.0,66.0,100,96,58,29.84,29.77,15,7,0,0.00
2013-6-26,78.1,74.0,69.8,78.0,74.0,70.0,100,100,100,29.93,29.84,25,11,0,0.00
2013-6-27,78.1,73.7,69.9,78.0,73.7,70.0,100,100,100,29.94,29.86,24,10,0,0.00
2013-6-28,73.9,72.4,71.1,74.0,72.5,71.0,100,100,100,29.90,29.86,18,5,0,0.00
2013-6-29,75.8,73.4,71.1,76.0,73.4,71.0,100,100,100,29.88,29.73,18,7,0,0.00
2013-6-30,80.1,73.4,68.8,80.0,73.4,69.0,100,100,100,29.73,29.64,16,3,0,0.06
2013-7-1,72.8,68.2,63.4,73.0,68.1,60.0,100,99,86,30.00,29.73,21,5,0,0.01
2013-7-2,72.1,68.6,64.3,72.0,68.6,64.0,100,100,100,30.04,30.00,15,5,0,0.00
2013-7-3,74.6,69.0,60.7,74.0,60.2,55.0,100,75,56,30.02,29.94,16,4,0,0.00
2013-7-4,74.9,69.8,61.5,68.0,61.5,56.0,100,75,61,29.95,29.91,19,4,0,0.00
2013-7-5,74.2,69.9,66.3,70.0,67.6,65.0,100,93,76,29.93,29.89,18,7,0,0.00
2013-7-6,75.8,72.1,68.8,73.0,70.4,68.0,100,94,79,29.93,29.87,21,10,0,0.00
2013-7-7,77.6,74.0,70.9,78.0,74.1,71.0,100,100,100,29.99,29.91,18,10,0,0.00
2013-7-8,78.1,74.2,70.9,78.0,74.2,71.0,100,100,100,30.03,29.98,20,10,0,0.00
2013-7-9,77.9,74.6,70.6,78.0,74.7,71.0,100,100,100,30.01,29.91,24,10,0,0.00
2013-7-10,77.0,73.6,71.6,77.0,73.7,72.0,100,100,100,29.91,29.75,19,10,0,0.00
2013-7-11,77.6,74.0,71.5,78.0,74.1,72.0,100,100,100,29.83,29.73,20,9,0,0.02
2013-7-12,78.6,74.4,69.9,79.0,74.4,70.0,100,100,100,29.91,29.83,18,8,0,0.00
2013-7-13,77.9,73.1,69.6,78.0,73.1,70.0,100,100,100,29.93,29.89,16,5,0,0.01
2013-7-14,78.8,73.8,69.6,79.0,73.9,70.0,100,100,100,29.92,29.89,18,5,0,0.01
2013-7-15,77.2,72.9,67.8,77.0,72.9,68.0,100,100,100,29.91,29.88,24,7,0,0.00
2013-7-16,76.1,72.9,67.9,76.0,73.0,68.0,100,100,100,29.97,29.90,24,9,0,0.00
2013-7-17,76.5,72.8,70.8,77.0,72.9,71.0,100,100,100,30.00,29.95,24,11,0,0.00
2013-7-18,76.1,72.7,70.4,76.0,72.8,70.0,100,100,100,30.03,29.97,27,11,0,0.01
2013-7-19,76.7,72.4,68.6,77.0,72.5,69.0,100,100,100,30.03,29.93,20,8,0,0.00
2013-7-20,77.9,73.1,68.4,78.0,73.2,68.0,100,100,100,29.93,29.84,20,8,0,0.00
2013-7-21,78.1,72.8,68.1,78.0,72.9,68.0,100,100,100,29.97,29.85,20,7,0,0.01
2013-7-22,74.4,71.2,67.6,74.0,71.2,68.0,100,100,100,29.97,29.91,19,9,0,0.00
2013-7-23,77.9,72.2,65.5,78.0,72.2,66.0,100,100,100,29.91,29.86,16,6,0,0.00
2013-7-24,83.8,76.9,67.1,84.0,76.9,67.0,100,100,100,29.92,29.87,14,4,0,0.00
2013-7-25,90.7,81.2,68.1,91.0,81.2,68.0,100,100,100,29.93,29.85,7,1,0,0.00
2013-7-26,83.2,76.7,70.3,83.0,76.8,70.0,100,100,100,29.90,29.87,17,4,0,0.00
2013-7-27,79.0,74.0,68.9,79.0,74.0,69.0,100,100,100,29.95,29.88,14,4,0,0.00
2013-7-28,79.0,73.7,67.3,79.0,71.5,63.0,100,93,64,30.05,29.95,17,5,0,0.00
2013-7-29,81.4,74.4,67.3,74.0,66.8,60.0,100,79,49,30.05,29.94,13,4,0,0.00
2013-7-30,88.8,80.8,69.4,88.0,59.7,52.0,100,51,29,29.94,29.76,14,3,0,0.00
2013-7-31,79.9,75.7,73.0,80.0,73.8,60.0,100,95,54,29.84,29.76,16,6,0,0.06
2013-8-1,76.0,71.7,68.4,74.0,71.3,68.0,100,98,81,29.96,29.84,17,5,0,0.58
2013-8-2,78.8,74.0,69.8,74.0,71.1,69.0,100,91,73,30.00,29.95,20,7,0,0.01
2013-8-3,79.9,75.1,69.9,74.0,66.9,60.0,100,78,53,30.00,29.96,16,5,0,0.00
2013-8-4,81.4,75.0,69.6,71.0,66.4,61.0,83,74,59,30.04,29.92,22,7,0,0.00
2013-8-5,77.9,73.7,69.6,69.0,65.0,60.0,87,75,55,30.05,29.98,22,9,0,0.00
2013-8-6,79.6,74.8,70.4,71.0,68.1,62.0,94,81,55,30.00,29.94,24,8,0,0.00
2013-8-7,78.3,74.6,70.8,73.0,68.7,62.0,100,83,60,30.00,29.92,24,7,0,0.00
2013-8-8,79.9,75.3,70.9,75.0,70.8,65.0,100,87,63,30.02,29.98,24,7,0,0.00
2013-8-9,80.9,76.0,71.8,75.0,72.6,69.0,100,90,68,29.98,29.87,19,9,0,0.00
2013-8-10,83.8,77.0,72.7,75.0,69.3,60.0,100,80,45,29.86,29.73,21,10,0,0.00
2013-8-11,79.4,75.5,72.3,74.0,70.7,67.0,100,85,69,29.84,29.72,26,9,0,0.00
2013-8-12,82.6,76.4,71.3,75.0,71.2,63.0,100,86,54,29.94,29.84,16,5,0,0.00
2013-8-13,83.2,76.3,71.1,76.0,70.5,61.0,100,84,48,29.95,29.90,17,5,0,0.01
2013-8-14,80.3,76.3,72.0,76.0,73.3,69.0,100,91,70,29.90,29.87,20,8,0,0.00
2013-8-15,81.4,76.5,72.8,75.0,73.5,72.0,100,91,75,29.96,29.87,21,9,0,0.00
2013-8-16,80.7,76.8,73.9,77.0,75.0,74.0,100,94,81,29.96,29.91,28,11,0,0.00
2013-8-17,78.5,76.1,73.0,75.0,71.8,66.0,100,87,73,29.98,29.91,28,14,0,0.00
2013-8-18,73.0,8.6,71.3,67.0,-80.0,-99.9,84,10,81,29.98,29.94,11,-879,0,0.00
2013-8-19,73.2,72.8,72.7,73.0,73.0,73.0,100,100,99,29.96,29.95,1,0,0,0.00
2013-8-20,81.2,51.5,74.2,77.0,13.6,-99.9,100,54,69,29.96,29.92,21,-333,0,0.00
2013-8-21,79.9,76.0,72.5,71.0,67.0,61.0,91,75,54,29.95,29.91,25,11,0,0.00
2013-8-22,79.6,75.5,72.7,72.0,66.7,63.0,94,75,60,29.92,29.87,24,10,0,0.00
2013-8-23,79.6,75.2,71.5,73.0,70.8,67.0,100,87,69,29.91,29.87,21,6,0,0.00
2013-8-24,80.1,75.2,70.9,74.0,71.5,68.0,100,89,68,29.92,29.88,17,5,0,0.00
2013-8-25,79.6,74.6,70.8,74.0,71.2,69.0,100,90,77,29.89,29.86,18,6,0,0.00
2013-8-26,81.2,75.1,70.4,74.0,70.6,61.0,100,87,51,29.89,29.85,15,6,0,0.00
2013-8-27,82.6,75.6,69.8,75.0,71.8,70.0,100,89,68,29.91,29.85,14,4,0,0.00
2013-8-28,83.0,75.8,71.1,75.0,72.6,71.0,100,91,69,29.89,29.81,12,5,0,0.00
2013-8-29,82.8,75.0,69.4,83.0,74.2,69.0,100,98,72,29.91,29.80,17,4,0,0.01
2013-8-30,76.3,73.0,70.3,73.0,68.9,65.0,100,88,68,29.97,29.89,22,8,0,0.00
2013-8-31,74.4,69.9,66.8,66.0,61.9,59.0,91,76,60,30.03,29.95,17,7,0,0.03
2013-9-1,75.4,70.4,65.3,75.0,69.7,59.0,100,98,76,30.07,30.02,18,5,0,0.00
2013-9-2,76.5,71.1,65.6,77.0,71.1,66.0,100,100,100,30.06,30.02,18,5,0,0.00
2013-9-3,82.2,72.6,63.7,82.0,70.9,59.0,100,95,55,30.05,29.92,13,2,0,0.00
2013-9-4,71.8,68.6,63.7,72.0,68.5,61.0,100,100,84,30.11,29.96,19,4,0,0.02
2013-9-5,72.0,66.2,58.1,72.0,66.0,58.0,100,100,81,30.13,30.01,13,3,0,0.06
2013-9-6,79.6,69.4,60.7,80.0,69.4,61.0,100,100,100,30.01,29.91,12,3,0,0.00
2013-9-7,76.3,69.9,64.3,76.0,69.9,64.0,100,100,100,30.07,29.97,14,5,0,0.00
2013-9-8,74.0,68.1,62.1,74.0,68.1,62.0,100,100,100,30.16,30.06,17,4,0,0.00
2013-9-9,72.5,67.5,63.1,73.0,67.5,63.0,100,100,100,30.18,30.12,14,5,0,0.00
2013-9-10,80.3,68.7,60.7,80.0,68.8,61.0,100,100,100,30.12,30.03,10,2,0,0.00
2013-9-11,81.1,72.8,63.4,81.0,72.8,63.0,100,100,100,30.04,29.93,11,2,0,0.00
2013-9-12,86.1,76.5,68.8,86.0,76.5,69.0,100,100,100,29.96,29.88,13,2,0,0.00
2013-9-13,86.7,77.0,71.5,87.0,77.1,72.0,100,100,100,29.89,29.84,13,3,0,0.00
2013-9-14,74.6,68.1,62.1,75.0,68.2,62.0,100,100,100,29.98,29.82,13,2,0,0.09
2013-9-15,77.7,70.4,62.9,78.0,70.4,63.0,100,100,100,29.97,29.85,11,2,0,0.00
2013-9-16,81.1,72.3,65.6,81.0,72.3,66.0,100,100,100,29.87,29.66,11,2,0,0.00
2013-9-17,77.4,71.7,67.8,77.0,71.7,68.0,100,100,100,29.67,29.61,7,2,0,0.00
2013-9-18,75.8,69.5,64.5,76.0,69.5,65.0,100,100,100,29.67,29.58,14,4,0,0.00
2013-9-19,79.6,69.5,60.1,80.0,69.5,60.0,100,100,100,29.75,29.66,10,2,0,0.01
2013-9-20,70.4,64.7,61.5,70.0,64.8,62.0,100,100,100,30.00,29.72,16,5,0,0.02
2013-9-21,68.9,64.2,60.2,69.0,64.2,60.0,100,100,100,30.06,29.99,14,3,0,0.00
2013-9-22,65.8,61.0,56.0,60.0,56.6,53.0,100,86,68,30.09,30.03,18,4,0,0.14
2013-9-23,69.3,64.0,57.5,69.0,62.9,54.0,100,96,75,30.06,29.86,11,2,0,0.06
2013-9-24,71.6,66.1,61.2,72.0,57.1,48.0,100,75,51,29.91,29.81,8,2,0,0.00
2013-9-25,77.4,70.0,62.3,77.0,63.1,50.0,100,81,48,30.01,29.91,8,2,0,0.00
2013-9-26,81.2,72.6,63.4,81.0,72.6,63.0,100,100,100,30.00,29.85,11,2,0,0.00
2013-9-27,78.8,69.1,62.1,79.0,69.1,62.0,100,100,100,29.99,29.83,16,4,0,0.10
2013-9-28,77.2,66.0,59.9,77.0,66.0,60.0,100,100,100,29.98,29.91,10,3,0,0.02
2013-9-29,78.8,67.6,60.9,79.0,67.7,61.0,100,100,100,29.97,29.88,8,2,0,0.00
2013-9-30,82.8,68.8,62.3,81.0,65.7,56.0,100,92,41,29.89,29.67,13,4,0,0.00
2013-10-1,74.0,67.4,54.8,74.0,67.4,55.0,100,100,100,29.66,29.51,13,2,0,0.17
2013-10-2,56.5,53.0,49.2,57.0,53.0,49.0,100,100,100,30.02,29.66,13,3,0,0.50
2013-10-3,51.4,47.9,44.3,51.0,47.8,41.0,100,99,87,30.27,30.02,16,3,0,0.15
2013-10-4,48.5,45.2,41.2,48.0,42.3,37.0,100,90,67,30.38,30.25,12,3,0,0.24
2013-10-5,52.8,47.5,42.6,41.0,38.1,36.0,91,70,58,30.37,30.30,13,2,0,0.03
2013-10-6,55.3,49.9,45.5,47.0,43.3,38.0,91,78,67,30.38,30.27,17,2,0,0.00
2013-10-7,58.6,52.9,48.2,45.0,42.6,41.0,85,69,53,30.42,30.36,16,4,0,0.00
2013-10-8,60.9,54.6,48.3,61.0,51.7,44.0,100,90,68,30.39,30.33,19,6,0,0.00
2013-10-9,64.3,58.1,53.6,62.0,55.4,51.0,100,92,65,30.33,30.14,11,4,0,0.00
2013-10-10,70.9,62.3,54.2,71.0,62.3,54.0,100,100,95,30.14,30.04,7,1,0,0.01
2013-10-11,77.2,67.5,58.9,77.0,67.5,59.0,100,100,100,30.16,30.08,5,1,0,0.00
2013-10-12,73.0,65.0,59.0,73.0,65.0,59.0,100,100,100,30.24,30.16,14,4,0,0.00
2013-10-13,62.9,59.8,58.3,63.0,59.9,58.0,100,100,100,30.25,30.19,13,5,0,0.00
2013-10-14,66.3,59.5,55.3,66.0,59.6,55.0,100,100,100,30.21,30.15,13,4,0,0.00
2013-10-15,74.2,62.7,55.4,74.0,62.8,55.0,100,100,100,30.16,29.95,5,1,0,0.00
2013-10-16,73.5,65.3,59.2,74.0,65.3,59.0,100,100,100,29.95,29.60,7,2,0,0.04
2013-10-17,65.3,58.9,55.0,65.0,58.9,55.0,100,100,100,29.62,29.40,17,4,0,0.66
2013-10-18,60.1,56.5,54.7,60.0,56.6,55.0,100,100,100,29.94,29.58,14,3,0,0.80
2013-10-19,60.1,56.7,54.2,60.0,56.7,54.0,100,100,100,30.40,29.94,8,2,0,0.00
2013-10-20,60.5,55.2,51.3,61.0,55.3,51.0,100,100,100,30.46,30.37,8,3,0,0.00
2013-10-21,67.3,57.5,48.5,67.0,57.6,49.0,100,100,100,30.36,30.19,6,1,0,0.00
2013-10-22,67.6,60.3,53.9,65.0,55.8,53.0,100,87,62,30.20,30.14,6,1,0,0.00
2013-10-23,64.0,58.9,56.3,60.0,57.6,56.0,100,95,78,30.31,30.20,14,6,0,0.00
2013-10-24,61.3,57.3,55.1,58.0,54.5,50.0,100,91,76,30.31,30.25,16,6,0,0.00
2013-10-25,59.6,55.9,54.1,51.0,50.4,50.0,90,82,73,30.24,30.19,14,6,0,0.00
2013-10-26,60.7,56.6,53.6,55.0,52.6,50.0,99,87,70,30.24,30.19,14,4,0,0.00
2013-10-27,62.6,56.4,53.8,55.0,53.6,52.0,100,91,74,30.21,30.10,8,2,0,0.00
2013-10-28,66.3,59.1,54.4,66.0,59.0,54.0,100,100,86,30.11,30.04,7,3,0,0.01
2013-10-29,71.6,61.2,55.9,72.0,60.0,42.0,100,96,37,30.07,30.01,6,1,0,0.01
2013-10-30,60.1,56.2,54.4,60.0,56.2,54.0,100,100,90,30.12,30.04,14,5,0,0.00
2013-10-31,59.8,57.0,55.3,60.0,57.0,55.0,100,100,100,30.27,30.12,17,7,0,0.00
2013-11-1,60.1,57.8,55.9,60.0,57.8,56.0,100,100,100,30.26,30.17,18,7,0,0.00
2013-11-2,63.2,58.1,56.7,63.0,58.1,57.0,100,100,100,30.17,30.09,8,2,0,0.00
2013-11-3,61.6,58.2,56.7,62.0,58.3,57.0,100,100,100,30.09,30.00,8,2,0,0.00
2013-11-4,69.3,61.6,57.0,69.0,61.7,57.0,100,100,100,30.06,29.96,12,1,0,0.00
2013-11-5,71.1,65.0,57.3,71.0,64.4,53.0,100,98,64,29.97,29.83,13,3,0,0.00
2013-11-6,74.4,66.1,61.5,74.0,59.1,47.0,100,81,41,29.82,29.73,8,2,0,0.00
2013-11-7,64.5,54.9,50.2,65.0,54.8,50.0,100,99,74,30.14,29.75,18,1,0,0.40
2013-11-8,59.3,53.2,48.5,59.0,53.3,49.0,100,100,100,30.21,30.14,12,2,0,0.01
2013-11-9,64.5,55.2,50.5,60.0,49.9,39.0,100,85,51,30.17,30.02,9,2,0,0.00
2013-11-10,65.3,57.5,50.2,65.0,56.3,46.0,100,96,54,30.02,29.90,6,2,0,0.00
2013-11-11,69.9,62.1,56.0,70.0,62.2,56.0,100,100,100,30.10,29.89,6,1,0,0.00
2013-11-12,67.8,60.6,55.9,68.0,60.6,56.0,100,100,100,30.21,30.09,15,4,0,0.00
2013-11-13,56.2,54.5,53.3,56.0,53.4,50.0,100,96,86,30.21,30.11,14,7,0,0.00
2013-11-14,54.8,53.6,52.5,53.0,50.6,49.0,97,89,84,30.11,30.04,17,8,0,0.00
2013-11-15,57.3,53.7,51.4,54.0,51.7,48.0,100,93,81,30.22,30.01,20,10,0,0.01
2013-11-16,52.5,51.4,49.4,51.0,46.2,42.0,98,82,73,30.26,30.20,15,6,0,0.00
2013-11-17,52.8,49.4,46.8,53.0,48.8,42.0,100,98,75,30.23,30.17,12,3,0,0.00
2013-11-18,54.8,49.7,45.1,55.0,49.7,45.0,100,100,100,30.22,30.17,11,3,0,0.00
2013-11-19,59.9,52.9,49.4,60.0,53.0,49.0,100,100,100,30.19,30.07,10,2,0,0.00
2013-11-20,68.1,61.1,52.8,68.0,61.1,53.0,100,100,100,30.07,29.91,7,2,0,0.03
2013-11-21,67.9,62.6,57.8,68.0,62.7,58.0,100,100,100,29.91,29.82,11,2,0,0.01
2013-11-22,66.8,60.8,56.7,62.0,55.8,52.0,100,84,61,29.83,29.72,14,2,0,0.13
2013-11-23,59.0,57.0,55.4,55.0,54.5,54.0,99,91,85,29.86,29.81,5,0,0,0.00
2013-11-25,58.7,57.0,55.7,55.0,53.5,52.0,95,87,81,29.78,29.72,14,2,0,0.21
2013-11-26,56.6,54.2,52.8,55.0,53.8,53.0,100,98,89,29.85,29.75,5,0,0,0.17
2013-11-27,58.0,53.0,50.7,58.0,53.2,51.0,100,100,100,30.15,29.85,10,3,0,0.13
2013-11-28,51.0,44.5,41.8,51.0,44.5,42.0,100,100,100,30.32,30.15,17,4,0,0.06
2013-11-29,48.9,43.2,39.6,49.0,43.3,40.0,100,100,100,30.21,30.09,14,2,0,0.01
2013-11-30,52.5,44.4,37.2,53.0,44.5,37.0,100,100,100,30.24,30.19,9,0,0,0.00
2013-12-1,55.6,50.4,45.1,56.0,50.4,45.0,100,100,100,30.23,30.14,10,2,0,0.00
2013-12-2,52.5,49.3,44.5,53.0,49.3,45.0,100,100,100,30.33,30.08,17,5,0,0.25
2013-12-3,47.0,42.1,40.1,47.0,42.1,40.0,100,100,100,30.49,30.34,25,11,0,0.00
2013-12-4,45.5,43.3,41.2,46.0,43.4,41.0,100,100,100,30.35,30.10,22,8,0,0.00
2013-12-5,50.4,46.2,43.2,50.0,46.2,43.0,100,100,100,30.14,30.03,8,1,0,0.00
2013-12-6,52.2,47.1,40.6,52.0,47.1,41.0,100,100,100,30.12,29.82,10,1,0,0.00
2013-12-7,50.8,40.3,35.5,51.0,40.4,36.0,100,100,100,30.16,29.86,17,3,0,0.59
2013-12-8,42.5,38.4,33.5,43.0,33.0,8.0,100,86,35,30.38,30.17,18,4,0,0.00
2013-12-9,48.5,43.6,37.6,45.0,36.9,31.0,100,79,56,30.40,30.08,12,2,0,0.00
2013-12-10,48.2,39.3,31.2,43.0,37.6,30.0,100,93,76,30.41,30.05,24,8,0,0.26
2013-12-11,34.3,32.1,30.1,34.0,31.9,30.0,100,99,90,30.48,30.40,27,10,0,0.07
2013-12-12,34.9,32.5,31.0,34.0,32.3,31.0,100,99,92,30.42,30.25,7,0,0,0.20
2013-12-13,33.1,32.8,32.7,33.0,33.0,33.0,100,100,100,30.25,30.23,0,0,0,0.00
2013-12-14,44.1,42.1,38.6,44.0,42.3,39.0,100,100,100,30.41,30.26,8,2,0,0.02
2013-12-15,49.8,43.7,39.8,50.0,42.4,36.0,100,95,75,30.42,30.38,5,0,0,0.01
2013-12-16,43.5,41.6,39.6,44.0,40.3,36.0,100,95,84,30.50,30.39,13,2,0,0.13
2013-12-17,46.7,43.7,41.3,44.0,41.7,39.0,100,92,75,30.52,30.44,17,6,0,0.24
2013-12-18,46.7,44.6,42.6,44.0,40.0,37.0,97,84,72,30.43,30.30,14,5,0,0.00
2013-12-19,46.7,43.4,39.1,38.0,35.7,32.0,82,75,65,30.32,30.26,7,1,0,0.00
2013-12-20,49.8,43.3,38.2,39.0,35.0,32.0,86,73,57,30.46,30.31,7,1,0,0.00
2013-12-21,50.5,45.0,40.8,43.0,40.6,39.0,95,85,73,30.58,30.45,7,1,0,0.00
2013-12-22,45.1,41.6,39.8,43.0,41.1,39.0,100,98,90,30.59,30.55,6,1,0,0.01
2013-12-28,57.8,50.1,46.2,56.0,41.9,-99.9,100,80,45,30.03,29.97,12,2,0,0.00
2013-12-29,48.8,47.1,46.2,49.0,47.2,46.0,100,100,100,30.14,29.98,11,4,0,0.00
2013-12-30,46.7,45.4,43.2,47.0,45.5,43.0,100,100,100,30.25,30.12,20,7,0,0.00
2013-12-31,43.3,41.2,39.5,43.0,40.8,39.0,100,98,90,30.30,30.25,13,4,0,0.00
2014-1-1,43.9,42.8,42.2,44.0,42.9,42.0,100,100,100,30.25,30.20,9,4,0,0.00
2014-1-2,47.9,43.7,40.9,48.0,43.8,41.0,100,100,100,30.20,30.13,10,2,0,0.00